Location: Unspecified
(43.4354°N, 0.0000°E)
Time: 08:56:43
(UTC+00:00)

Transit 2A - Pass Details

Date: 19 June 2019
Orbit: 594 x 965 km, 66.7° (Epoch: 16 July)

Event Time Altitude Azimuth Distance (km) Brightness Sun altitude
Rises 00:21:56 0° 190° (S) 3,593 - -23.0°
Reaches altitude 10° 00:24:32 10° 184° (S) 2,674 - -22.9°
Exits shadow 00:29:00 40° 150° (SSE) 1,395 6.9 -22.8°
Maximum altitude 00:30:32 47° 113° (ESE) 1,256 6.9 -22.8°
Drops below altitude 10° 00:36:33 10° 42° (NE) 2,679 9.6 -22.7°
Sets 00:39:09 0° 37° (NE) 3,600 10.5 -22.6°
